STARLINK-5225, 54063

Orbit data source: Space-Track

STARLINK-5225, 54063 is a payload satellite owned by SpaceX/Seattle (US) in LEO that was launched on Thu, 20 Oct 2022 UTC via an FALCON 9 launch vehicle from the Air Force Eastern Test Range (AFETR). Payload-class satellites include a variety of spacecraft equipped with specific instruments for various scientific and technological missions. These include communications satellites like Starlink; space stations such as the ISS; scientific satellites like the Hubble; Earth observation satellites from companies like Planet Labs, Umbra, and HawkEye 360; GPS; miniature CubeSats for education and research; and military/defense satellites.

Loading next visibility...
Identifier
54063, 2022-136N
Orbit
LEO
Country
Flag of USUS
Related business
Manufacturer
SpaceX/Seattle
Mission
Operational Commercial Communications
Bus & Motor
STARLINK, Unknown motor
Mass
305 kg wet, ~290 kg dry
Launch date (UTC)
2022-10-20 (3 years ago)
Launch vehicle
FALCON 9
Launch site
Air Force Eastern Test Range (AFETR)
Object type
Payload
Rocket body
Debris
Shape & HBR
Box + 1 Pan, 10.1 m
Radar Cross Section
13.562 m², Large (>1 m²)

Expand to show TLE details & history
Last TLE update: 13 hours ago

TLE from 13 hours ago
0 STARLINK-5225
1 54063U 22136N   25303.98303899  .00000985  00000-0  79958-4 0  9998
2 54063  53.2166 206.3294 0001215  89.3133 270.7999 15.08842239167262
Epoch: 2025-10-30T23:35Z
TLE epoch observation values (Epoch: 2025-10-30T23:35:34.568Z)
Latitude
0.00002°
Longitude
172.90138°
Altitude
540.622 km
Speed
7.593 km/s
True Right ascension
13h 45m 19s
True Declination
0° 00' 00"
Sunlit
Object was in daylight at epoch
Visualization orbit readout
Latitude
Unknown
Longitude
Unknown
Altitude
Unknown
Speed
Unknown
Apparent Right ascension
Unknown
Apparent Declination
Unknown
Sunlit
N/A
Visualization observer readout
Local Sidereal Time
08:37:08
Azimuth
Unknown
Elevation
Unknown
Doppler factor
Unknown
Orbital elements
Apogee altitude
540.822 km
Perigee altitude
539.141 km
Semi-major axis
6,918.119 km
Eccentricity
0.00012
Inclination
53.2166°
RAAN
206.3294°
Arg. of periapsis
89.3133°
True anomaly
270.78598°
Mean anomaly
270.7999°
Eccentric anomaly
270.79294°
Mean motion
3.77191 °/min
Orbital period
95.44 mins
BSTAR
0.000079958
Loading maneuver chart data...
Computing Atmospheric mass density...
Loading historical data...
Loading historical data...
Loading historical data...
Loading historical data...
Loading historical data...
Loading historical data...
Loading historical data...

Documentation

Showing up to 5 results
|